| time (UTC) | temp F | wind direction | speed knots | gust knots | rain 1hr in | rain 24hr in | rain mn in | humidity % | barometer mb |
| 20260509043026 | 84 | 211 | 0.9 | 2.6 | 0.00 | 0.00 | 0.00 | 79 | 1008.2 |
| 20260509041525 | 83 | 212 | 1.7 | 4.3 | 0.00 | 0.00 | 0.00 | 81 | 1008.3 |
| 20260509040035 | 82 | 273 | 1.7 | 3.5 | 0.00 | 0.00 | 0.00 | 81 | 1008.5 |
| 20260509034524 | 83 | 294 | 0.9 | 3.5 | 0.00 | 0.00 | 0.00 | 82 | 1008.7 |
| 20260509033024 | 83 | 295 | 0.0 | 3.5 | 0.00 | 0.00 | 0.00 | 82 | 1009.0 |
| 20260509031528 | 83 | 295 | 0.0 | 2.6 | 0.00 | 0.00 | 0.00 | 82 | 1009.3 |
| 20260509030019 | 82 | 294 | 0.0 | 6.1 | 0.00 | 0.00 | 0.00 | 82 | 1009.5 |
| 20260509024516 | 81 | 231 | 0.0 | 2.6 | 0.00 | 0.00 | 0.00 | 84 | 1009.9 |
| 20260509023014 | 80 | 228 | 0.0 | 1.7 | 0.00 | 0.00 | 0.00 | 86 | 1009.9 |
| 20260509021516 | 79 | 228 | 0.0 | 2.6 | 0.00 | 0.00 | 0.00 | 86 | 1010.1 |
| 20260509020013 | 78 | 227 | 0.0 | 1.7 | 0.00 | 0.00 | 0.00 | 87 | 1010.1 |
| 20260509014530 | 77 | 227 | 0.0 | 0.0 | 0.00 | 0.00 | 0.00 | 87 | 1010.2 |
| 20260509013009 | 76 | 227 | 0.0 | 1.7 | 0.00 | 0.00 | 0.00 | 89 | 1010.1 |
| 20260509011508 | 76 | 227 | 0.0 | 0.9 | 0.00 | 0.00 | 0.00 | 90 | 1009.8 |
| 20260509010005 | 76 | 226 | 0.0 | 1.7 | 0.00 | 0.00 | 0.00 | 90 | 1009.7 |
| 20260509004503 | 76 | 226 | 0.0 | 2.6 | 0.00 | 0.00 | 0.00 | 90 | 1009.6 |
| 20260509003001 | 75 | 226 | 0.9 | 2.6 | 0.00 | 0.00 | 0.00 | 90 | 1009.4 |
| 20260509001558 | 75 | 227 | 0.0 | 1.7 | 0.00 | 0.00 | 0.00 | 92 | 1009.2 |
| 20260509000057 | 75 | 226 | 0.0 | 0.9 | 0.00 | 0.00 | 0.00 | 92 | 1008.9 |
| 20260508234557 | 75 | 226 | 0.0 | 0.0 | 0.00 | 0.00 | 0.00 | 92 | 1008.6 |
| 20260508233055 | 75 | 226 | 0.0 | 0.0 | 0.00 | 0.00 | 0.00 | 92 | 1008.3 |
| 20260508231556 | 75 | 226 | 0.0 | 0.0 | 0.00 | 0.00 | 0.00 | 92 | 1008.1 |
| 20260508230122 | 75 | 226 | 0.0 | 0.0 | 0.00 | 0.00 | 0.00 | 92 | 1007.9 |
| 20260508224551 | 75 | 226 | 0.0 | 0.0 | 0.00 | 0.00 | 0.00 | 92 | 1007.7 |
| 20260508223047 | 75 | 226 | 0.0 | 0.0 | 0.00 | 0.00 | 0.00 | 91 | 1007.6 |
| 20260508221546 | 75 | 226 | 0.0 | 0.0 | 0.00 | 0.00 | 0.00 | 91 | 1007.6 |
| 20260508220111 | 75 | 227 | 0.0 | 0.0 | 0.00 | 0.00 | 0.00 | 90 | 1007.5 |
| 20260508214543 | 75 | 226 | 0.0 | 0.0 | 0.00 | 0.00 | 0.00 | 90 | 1007.4 |
| 20260508213041 | 75 | 227 | 0.0 | 0.9 | 0.00 | 0.00 | 0.00 | 90 | 1007.3 |
| 20260508211546 | 75 | 226 | 0.0 | 0.0 | 0.00 | 0.00 | 0.00 | 88 | 1007.3 |
| 20260508210039 | 76 | 226 | 0.0 | 0.0 | 0.00 | 0.00 | 0.00 | 88 | 1007.1 |
| 20260508204542 | 76 | 226 | 0.0 | 1.7 | 0.00 | 0.00 | 0.00 | 87 | 1006.9 |
| 20260508203038 | 75 | 226 | 0.0 | 1.7 | 0.00 | 0.00 | 0.00 | 88 | 1007.0 |
| 20260508201537 | 75 | 226 | 0.0 | 0.9 | 0.00 | 0.00 | 0.00 | 88 | 1006.8 |
| 20260508200037 | 76 | 226 | 0.0 | 0.0 | 0.00 | 0.00 | 0.00 | 89 | 1006.8 |
| 20260508194536 | 76 | 226 | 0.0 | 0.0 | 0.00 | 0.00 | 0.00 | 89 | 1006.8 |
| 20260508193034 | 76 | 226 | 0.0 | 0.0 | 0.00 | 0.00 | 0.00 | 88 | 1006.8 |
| 20260508191531 | 76 | 226 | 0.0 | 0.9 | 0.00 | 0.00 | 0.00 | 88 | 1006.9 |
| 20260508190034 | 76 | 226 | 0.0 | 0.0 | 0.00 | 0.00 | 0.00 | 88 | 1007.2 |
| 20260508184539 | 76 | 226 | 0.0 | 1.7 | 0.00 | 0.00 | 0.00 | 88 | 1007.3 |
| 20260508183027 | 76 | 226 | 0.0 | 1.7 | 0.00 | 0.00 | 0.00 | 87 | 1007.2 |
| 20260508181535 | 77 | 226 | 0.9 | 2.6 | 0.00 | 0.00 | 0.00 | 86 | 1007.2 |
| 20260508180022 | 77 | 226 | 0.9 | 3.5 | 0.00 | 0.00 | 0.00 | 86 | 1007.5 |
| 20260508174530 | 77 | 204 | 1.7 | 7.8 | 0.00 | 0.00 | 0.00 | 86 | 1007.5 |
| 20260508173016 | 78 | 210 | 3.5 | 7.0 | 0.00 | 0.00 | 0.00 | 84 | 1007.6 |
| 20260508171514 | 79 | 206 | 4.3 | 8.7 | 0.00 | 0.00 | 0.00 | 82 | 1007.8 |
| 20260508170011 | 80 | 195 | 3.5 | 8.7 | 0.00 | 0.00 | 0.00 | 81 | 1007.9 |
| 20260508164510 | 80 | 199 | 6.1 | 10.4 | 0.00 | 0.01 | 0.00 | 81 | 1008.0 |
| 20260508163012 | 80 | 206 | 3.5 | 8.7 | 0.00 | 0.01 | 0.00 | 82 | 1008.0 |
| 20260508161509 | 79 | 45 | 0.0 | 1.7 | 0.00 | 0.01 | 0.00 | 85 | 1007.9 |
| 20260508160008 | 79 | 45 | 0.0 | 1.7 | 0.00 | 0.01 | 0.00 | 86 | 1007.7 |
| 20260508154508 | 79 | 45 | 0.0 | 0.0 | 0.00 | 0.03 | 0.00 | 86 | 1007.8 |
| 20260508153006 | 79 | 46 | 0.0 | 0.0 | 0.00 | 0.03 | 0.00 | 86 | 1007.5 |
| 20260508151507 | 79 | 45 | 0.0 | 0.9 | 0.00 | 0.03 | 0.00 | 86 | 1007.1 |
| 20260508150006 | 79 | 45 | 0.0 | 1.7 | 0.00 | 0.19 | 0.00 | 86 | 1006.8 |
| 20260508144506 | 80 | 45 | 0.0 | 0.0 | 0.00 | 0.19 | 0.00 | 83 | 1006.6 |
| 20260508143006 | 81 | 45 | 0.0 | 0.0 | 0.00 | 0.19 | 0.00 | 81 | 1006.1 |
| 20260508141505 | 81 | 45 | 0.0 | 0.9 | 0.00 | 0.19 | 0.00 | 81 | 1005.6 |
| 20260508140006 | 82 | 45 | 0.0 | 2.6 | 0.00 | 0.25 | 0.00 | 79 | 1005.5 |
| 20260508134509 | 82 | 47 | 1.7 | 5.2 | 0.00 | 0.25 | 0.00 | 78 | 1005.1 |
| 20260508133004 | 81 | 67 | 0.9 | 5.2 | 0.00 | 0.25 | 0.00 | 78 | 1004.9 |
| 20260508131504 | 82 | 67 | 0.0 | 1.7 | 0.00 | 0.25 | 0.00 | 78 | 1004.8 |
| 20260508130005 | 83 | 67 | 0.0 | 2.6 | 0.00 | 0.25 | 0.00 | 75 | 1004.4 |
| 20260508124508 | 84 | 67 | 0.0 | 1.7 | 0.00 | 0.25 | 0.00 | 72 | 1004.0 |
| 20260508123003 | 85 | 67 | 0.9 | 3.5 | 0.00 | 0.25 | 0.00 | 70 | 1003.8 |
| 20260508121502 | 85 | 35 | 0.9 | 2.6 | 0.00 | 0.25 | 0.00 | 70 | 1003.9 |
| 20260508120002 | 86 | 34 | 2.6 | 8.7 | 0.00 | 0.25 | 0.00 | 69 | 1003.7 |
| 20260508114501 | 86 | 37 | 1.7 | 7.8 | 0.00 | 0.25 | 0.00 | 69 | 1003.6 |
| 20260508113001 | 87 | 62 | 1.7 | 4.3 | 0.00 | 0.25 | 0.00 | 70 | 1003.4 |
| 20260508111600 | 88 | 180 | 0.0 | 1.7 | 0.00 | 0.25 | 0.00 | 73 | 1002.9 |
| 20260508110100 | 89 | 180 | 0.0 | 2.6 | 0.00 | 0.25 | 0.00 | 69 | 1002.5 |
| 20260508104606 | 89 | 183 | 1.7 | 2.6 | 0.00 | 0.25 | 0.00 | 68 | 1002.4 |
| 20260508103059 | 90 | 184 | 0.0 | 3.5 | 0.00 | 0.25 | 0.00 | 67 | 1002.1 |
| 20260508101600 | 91 | 171 | 1.7 | 6.1 | 0.00 | 0.25 | 0.00 | 66 | 1002.0 |
| 20260508100059 | 91 | 100 | 1.7 | 7.0 | 0.00 | 0.25 | 0.00 | 67 | 1001.9 |
| 20260508094615 | 91 | 180 | 2.6 | 7.0 | 0.00 | 0.25 | 0.00 | 67 | 1001.9 |
| 20260508093057 | 92 | 191 | 4.3 | 6.1 | 0.00 | 0.25 | 0.00 | 67 | 1001.8 |
| 20260508091554 | 91 | 218 | 2.6 | 5.2 | 0.00 | 0.25 | 0.00 | 68 | 1001.9 |
| 20260508090055 | 91 | 206 | 0.9 | 7.8 | 0.00 | 0.25 | 0.00 | 67 | 1002.0 |
| 20260508084551 | 91 | 201 | 2.6 | 6.1 | 0.00 | 0.25 | 0.00 | 69 | 1002.1 |
| 20260508083048 | 91 | 189 | 0.0 | 4.3 | 0.00 | 0.25 | 0.00 | 67 | 1002.5 |
| 20260508081608 | 91 | 230 | 2.6 | 4.3 | 0.00 | 0.25 | 0.00 | 71 | 1002.7 |
| 20260508080044 | 90 | 222 | 2.6 | 5.2 | 0.00 | 0.25 | 0.00 | 70 | 1003.2 |
| 20260508074540 | 91 | 287 | 2.6 | 4.3 | 0.00 | 0.25 | 0.00 | 71 | 1003.5 |
| 20260508073043 | 89 | 264 | 0.0 | 5.2 | 0.00 | 0.25 | 0.00 | 72 | 1003.6 |
| 20260508071541 | 89 | 262 | 1.7 | 5.2 | 0.00 | 0.25 | 0.00 | 75 | 1003.9 |
| 20260508070030 | 89 | 262 | 0.9 | 2.6 | 0.00 | 0.25 | 0.00 | 72 | 1004.4 |
| 20260508064530 | 87 | 262 | 0.9 | 3.5 | 0.00 | 0.25 | 0.00 | 77 | 1004.8 |
| 20260508063032 | 86 | 262 | 2.6 | 5.2 | 0.00 | 0.25 | 0.00 | 76 | 1005.1 |
| 20260508061518 | 86 | 230 | 2.6 | 5.2 | 0.00 | 0.25 | 0.00 | 78 | 1005.7 |
| 20260508060015 | 84 | 256 | 0.9 | 5.2 | 0.00 | 0.25 | 0.00 | 82 | 1006.0 |
| 20260508054515 | 84 | 236 | 0.9 | 3.5 | 0.00 | 0.25 | 0.00 | 81 | 1006.5 |
| 20260508053011 | 84 | 231 | 1.7 | 4.3 | 0.00 | 0.25 | 0.00 | 82 | 1006.8 |
| 20260508051607 | 82 | 197 | 0.9 | 2.6 | 0.00 | 0.25 | 0.00 | 83 | 1007.1 |
| 20260508050007 | 81 | 196 | 0.9 | 2.6 | 0.00 | 0.25 | 0.00 | 84 | 1007.5 |
| 20260508044504 | 81 | 196 | 1.7 | 3.5 | 0.00 | 0.25 | 0.00 | 85 | 1007.9 |